Weather in Palm Coast

United States     29°34′25″N   81°12′41″W
temp.,
°C
wind,
m/s
gust,
m/s
humid.,
%
clouds,
%
prec.,
mm/h
press.,
hPa
HPBL,
m
17 september, fri
fri1723:00+23se149494 5.9 1018175
02:00+23s1497100 6.3 1017198
05:00+23ssw0196100 0.0 101724
08:00+23sw129457 0.0 101877
11:00+30nne006466 0.0 1019840
14:00+30e226246 1.1 10181079
17:00+30e226359 1.3 1017976
20:00+24ese1491100 4.6 1018113
18 september, sat
sat1823:00+24ssw1394100 4.8 101889
02:00+24wsw149580 5.1 1017101
05:00+23wsw119656 0.0 101736
08:00+24wsw119327 0.0 101860
11:00+31nne116033 0.0 1018898
14:00+31e226186 1.8 10171224
17:00+30e3265100 1.2 1016762
20:00+26ese2482100 2.4 1016120
19 september, sun
sun1923:00+24sw1393100 3.3 101895
02:00+24n1195100 3.5 101739
05:00+24ne1193100 0.1 101615
08:00+24e1191100 0.1 101721
11:00+26e128699 1.4 101892
14:00+29e346654 1.5 1017895
17:00+29e3463100 0.0 10161175
20:00+26ese2684100 0.0 1017281
20 september, mon
mon2023:00+24se1495100 4.9 1018104
02:00+24ese239595 7.1 101779
05:00+24ese1396100 3.9 101762
08:00+24ese2493100 5.8 1018121
11:00+28ese2477100 1.6 1019734
14:00+30ese236183 2.0 10181276
17:00+29e346871 0.5 1016851
20:00+25ene2692100 4.4 1017166
21 september, tue
tue2123:00+24se1193100 4.4 101919
02:00+24ese119498 4.5 101818
05:00+24ne119598 0.0 101711
08:00+24nne119399 0.3 101846
11:00+27e2379100 3.5 1019461
14:00+27ene2378100 6.0 1018422
17:00+26ne2483100 0.8 1016375
20:00+25ne1391100 0.9 101692